Weather History for Deering, AK

Change the Weather History Date:

Thursday, January 31, 2013

  Actual Average (PAOT) Record (PAOT)
Temperature  
Mean Temperature 4 °F -3 °F  
Max Temperature 9 °F - 37 °F (1994)
Min Temperature -2 °F -10 °F -47 °F (1993)
Degree Days  
Heating Degree Days 62 68  
Month to date heating degree days 2097  
Since 1 July heating degree days 8399  
Cooling Degree Days 0    
Month to date cooling degree days  
Year to date cooling degree days  
Moisture  
Dew Point 2 °F    
Average Humidity 82    
Maximum Humidity 87    
Minimum Humidity 75    
Precipitation  
Precipitation 0.01 in 0.02 in 0.12 in (2013)
Month to date precipitation 0.62  
Year to date precipitation 0.62  
Snow  
Snow 0.00 in 0.30 in 1.60 in (1960)
Month to date snowfall 9.1  
Since 1 July snowfall 38.0  
Snow Depth -    
Sea Level Pressure  
Sea Level Pressure 29.78 in    
Wind  
Wind Speed 10 mph (WSW)    
Max Wind Speed 29 mph    
Max Gust Speed 32 mph    
Visibility 4 miles    
Events Snow    
T = Trace of Precipitation, MM = Missing Value Source: NWS Daily Summary

Daily Weather History Graph

Daily Weather History Graph

Search for Another Location

Airport:

Trip Planner

Search our weather history database for the weather conditions in past years. The results will help you decide how hot, cold, wet, or windy it might be!

Date:

Astronomy

Jan. 31, 2013 Rise Set
Actual Time 10:49 AM AKST 5:20 PM AKST
Civil Twilight 9:45 AM AKST 6:24 PM AKST
Nautical Twilight 8:41 AM AKST 7:28 PM AKST
Astronomical Twilight 7:41 AM AKST 8:28 PM AKST
Moon No Moon Rise 10:29 AM AKST (1/31)
Length of Visible Light 8h 39m
Length of Day
6h 31m
Waning Gibbous, 78% of the Moon is Illuminated
Jan 31
Waning Gibbous
Feb 3
Last Quarter
Feb 9
New
Feb 17
First Quarter
Feb 25
Full

Hourly Weather History & Observations

Time (AKST) Temp. Windchill Dew Point Humidity Pressure Visibility Wind Dir Wind Speed Gust Speed Precip Events Conditions
12:07 AM 6.8 °F -10.0 °F 3.2 °F 85% 29.64 in 2.0 mi NE 13.8 mph - 0.00 in Snow Light Snow
12:33 AM 6.8 °F -10.0 °F 3.2 °F 85% 29.65 in 3.0 mi NE 13.8 mph - 0.00 in Snow Light Snow
12:48 AM 6.8 °F -10.0 °F 3.2 °F 85% 29.65 in 3.0 mi NE 13.8 mph - 0.00 in Snow Light Snow
12:53 AM 7.0 °F -10.4 °F 3.0 °F 84% 29.65 in 4.0 mi NE 15.0 mph - 0.00 in Snow Light Snow
1:53 AM 7.0 °F -7.5 °F 3.0 °F 84% 29.66 in 10.0 mi ENE 10.4 mph - 0.00 in   Overcast
3:03 AM 8.6 °F -3.7 °F 3.2 °F 79% 29.67 in 10.0 mi ENE 8.1 mph - N/A   Overcast
3:53 AM 8.1 °F -4.3 °F 3.9 °F 83% 29.68 in 3.0 mi NE 8.1 mph - 0.00 in Snow Light Snow
4:44 AM 8.6 °F -4.7 °F 3.2 °F 79% 29.68 in 2.0 mi NE 9.2 mph - 0.00 in Snow Light Snow
4:53 AM 8.1 °F -5.3 °F 3.9 °F 83% 29.69 in 2.5 mi NE 9.2 mph - 0.00 in Snow Light Snow
5:00 AM 8.6 °F -6.3 °F 3.2 °F 79% 29.68 in 4.0 mi NE 11.5 mph - 0.00 in Snow Light Snow
5:40 AM 8.6 °F -3.7 °F 3.2 °F 79% 29.69 in 2.5 mi ENE 8.1 mph - 0.00 in Snow Light Snow
5:53 AM 8.1 °F -2.0 °F 3.9 °F 83% 29.69 in 2.5 mi ENE 5.8 mph - 0.00 in Snow Light Snow
6:16 AM 8.6 °F -1.3 °F 3.2 °F 79% 29.69 in 3.0 mi NE 5.8 mph - 0.00 in Snow Light Snow
6:40 AM 8.6 °F 2.0 °F 5.0 °F 85% 29.69 in 2.5 mi ENE 3.5 mph - 0.00 in Snow Light Snow
6:49 AM 8.6 °F 0.1 °F 5.0 °F 85% 29.69 in 3.0 mi ENE 4.6 mph - 0.00 in Snow Light Snow
6:53 AM 8.1 °F 1.4 °F 5.0 °F 87% 29.70 in 3.0 mi ENE 3.5 mph - 0.00 in Snow Light Snow
7:08 AM 8.6 °F - 3.2 °F 79% 29.70 in 2.5 mi Calm Calm - 0.00 in Snow Light Snow
7:18 AM 8.6 °F - 5.0 °F 85% 29.70 in 5.0 mi Calm Calm - 0.00 in Snow Light Snow
7:51 AM 8.6 °F 0.1 °F 3.2 °F 79% 29.70 in 2.5 mi SSW 4.6 mph - 0.00 in Snow Light Snow
7:53 AM 7.0 °F -1.7 °F 3.0 °F 84% 29.71 in 2.5 mi SSW 4.6 mph - 0.00 in Snow Light Snow
8:04 AM 6.8 °F -2.0 °F 3.2 °F 85% 29.71 in 3.0 mi South 4.6 mph - 0.00 in Snow Light Snow
8:53 AM 7.0 °F -4.5 °F 3.0 °F 84% 29.72 in 4.0 mi South 6.9 mph - 0.00 in Snow Light Snow
9:53 AM 8.1 °F -2.0 °F 3.0 °F 80% 29.74 in 4.0 mi South 5.8 mph - 0.00 in Snow Light Snow
10:53 AM 7.0 °F 0.1 °F 3.0 °F 84% 29.75 in 4.0 mi South 3.5 mph - 0.00 in Snow Light Snow
11:51 AM 8.6 °F 2.0 °F 3.2 °F 79% 29.77 in 7.0 mi SW 3.5 mph - 0.00 in Snow Light Snow
11:53 AM 8.1 °F 1.4 °F 3.9 °F 83% 29.78 in 7.0 mi SW 3.5 mph - 0.00 in Snow Light Snow
12:34 PM 8.6 °F - 3.2 °F 79% 29.78 in 4.0 mi Calm Calm - 0.00 in Snow Light Snow
12:53 PM 8.1 °F - 3.9 °F 83% 29.79 in 8.0 mi Calm Calm - 0.00 in   Overcast
1:53 PM 8.1 °F - 3.9 °F 83% 29.81 in 7.0 mi Calm Calm - 0.00 in Snow Light Snow
2:51 PM 8.6 °F - 5.0 °F 85% 29.82 in 2.0 mi Calm Calm - 0.00 in Snow Light Snow
2:53 PM 9.0 °F - 5.0 °F 84% 29.82 in 2.0 mi Calm Calm - 0.00 in Snow Light Snow
3:53 PM 9.0 °F 2.4 °F 3.9 °F 80% 29.85 in 7.0 mi WSW 3.5 mph - 0.00 in Snow Light Snow
4:06 PM 8.6 °F -2.6 °F 3.2 °F 79% 29.84 in 1.8 mi West 6.9 mph - 0.00 in Snow Light Snow
4:14 PM 8.6 °F -3.7 °F 3.2 °F 79% 29.84 in 3.0 mi West 8.1 mph - 0.01 in Snow Light Snow
4:22 PM 8.6 °F -3.7 °F 3.2 °F 79% 29.85 in 4.0 mi West 8.1 mph - 0.01 in Snow Light Snow
4:53 PM 9.0 °F -5.1 °F 3.9 °F 80% 29.86 in 7.0 mi WSW 10.4 mph - 0.01 in Snow Light Snow
5:53 PM 8.1 °F -5.3 °F 3.0 °F 80% 29.88 in 6.0 mi West 9.2 mph - 0.00 in Snow Light Snow
7:53 PM 5.0 °F -14.2 °F -0.0 °F 80% 29.94 in 10.0 mi WSW 17.3 mph - 0.00 in   Overcast
9:06 PM 1.4 °F -23.5 °F -2.2 °F 85% 29.96 in 1.8 mi WSW 28.8 mph 32.2 mph 0.00 in Snow Light Snow
9:21 PM 1.4 °F -21.4 °F -4.0 °F 78% 29.97 in 2.5 mi WSW 23.0 mph - 0.00 in Snow Light Snow
9:29 PM 1.4 °F -21.4 °F -4.0 °F 78% 29.98 in 5.0 mi WSW 23.0 mph - 0.00 in Snow Blowing Snow
9:53 PM -0.0 °F -22.9 °F -5.1 °F 79% 29.99 in 7.0 mi WSW 21.9 mph - 0.00 in   Overcast
10:53 PM -2.0 °F -26.0 °F -7.1 °F 79% 30.03 in 8.0 mi WSW 23.0 mph - 0.00 in   Scattered Clouds
11:21 PM -0.4 °F -22.8 °F -5.8 °F 78% 30.04 in 5.0 mi WSW 20.7 mph - 0.00 in Snow Light Snow
11:53 PM -0.9 °F -22.4 °F -7.1 °F 75% 30.06 in 8.0 mi WSW 18.4 mph - 0.00 in   Overcast